ASTRA 1L

Last updated on Sun Apr 12 2026 00:02:51 GMT+0000 (Coordinated Universal Time)

1 31306U 07016A 26101.37320975 -.00000182 00000+0 00000+0 0 9993 2 31306 1.1479 82.0264 0004541 319.0917 268.3115 1.00271298 44311
UTC large
Height (km)
Speed (km/s)
/
Latitude / Longitude
Inclination (degrees)
Orbital Period (minutes)
Azimuth
Elevation
Range (km)
Doppler Factor

Next 0 passes for location: London (51.5072 / 0.1276)

Sorry there are no passes over London.
ASTRA 1L